This is the latest recevied weather packets stored in our database for station/object PY2UEP-1. If no packets are shown the sender has not sent any weather packets the latest 10 day(s).
| Time | Temp. | Humidity | Pressure | Rain* | Wind** | Luminosity | Snow |
|---|---|---|---|---|---|---|---|
| 1788136506 | 21.67° C | 77% | 1015.6 hPa | 0 mm | - | - | - |
| 1788136206 | 21.67° C | 78% | 1015.6 hPa | 0 mm | - | - | - |
| 1788135906 | 21.67° C | 78% | 1015.5 hPa | 0 mm | - | - | - |
| 1788135606 | 21.67° C | 79% | 1015.4 hPa | 0 mm | - | - | - |
| 1788135306 | 21.67° C | 80% | 1015.4 hPa | 0 mm | - | - | - |
| 1788135006 | 22.22° C | 80% | 1015.4 hPa | 0 mm | - | - | - |
| 1788134706 | 22.22° C | 79% | 1015.4 hPa | 0 mm | - | - | - |
| 1788134406 | 23.33° C | 79% | 1015.4 hPa | 0 mm | - | - | - |
| 1788134106 | 23.89° C | 77% | 1015.3 hPa | 0 mm | - | - | - |
| 1788133806 | 25° C | 75% | 1015.3 hPa | 0 mm | - | - | - |
| 1788133506 | 25° C | 75% | 1015.1 hPa | 0 mm | - | - | - |
| 1788133206 | 25.56° C | 74% | 1014.9 hPa | 0 mm | - | - | - |
| 1788132906 | 25.56° C | 74% | 1014.8 hPa | 0 mm | - | - | - |
| 1788132606 | 25.56° C | 74% | 1014.4 hPa | 0 mm | - | - | - |
| 1788132306 | 26.11° C | 74% | 1014.4 hPa | 0 mm | - | - | - |
| 1788132006 | 26.11° C | 73% | 1014.1 hPa | 0 mm | - | - | - |
| 1788131706 | 26.11° C | 72% | 1014.1 hPa | 0 mm | - | - | - |
| 1788131406 | 26.67° C | 71% | 1014.1 hPa | 0 mm | - | - | - |
| 1788131108 | 26.67° C | 71% | 1014.1 hPa | 0 mm | - | - | - |
| 1788130806 | 26.67° C | 71% | 1014.1 hPa | 0 mm | - | - | - |
| 1788130506 | 26.67° C | 71% | 1013.9 hPa | 0 mm | - | - | - |
| 1788130206 | 27.22° C | 69% | 1013.9 hPa | 0 mm | - | - | - |
| 1788129906 | 27.22° C | 68% | 1013.8 hPa | 0 mm | - | - | - |
| 1788129606 | 27.22° C | 68% | 1013.8 hPa | 0 mm | - | - | - |
| 1788129306 | 27.22° C | 69% | 1013.7 hPa | 0 mm | - | - | - |
* Rain since midnight (hover to see other rain measurements)
** Current wind speed in m/s (hover to see current wind gust speed)